Time,TemperatureF,DewpointF,PressureIn,WindDirection,WindDirectionDegrees,WindSpeedMPH,WindSpeedGustMPH,Humidity,HourlyPrecipIn,Conditions,Clouds,dailyrainin,SoftwareType,DateUTC
2013-02-10 00:01:00,39.0,38.0,30.22,North,0,0.0,0.0,97,30.40,,,-99.99,,2013-02-10 08:01:00,
2013-02-10 00:11:00,39.0,38.0,30.22,North,0,0.0,0.0,97,30.40,,,-99.99,,2013-02-10 08:11:00,
2013-02-10 00:21:00,39.0,38.0,30.22,North,0,0.0,0.0,98,30.40,,,-99.99,,2013-02-10 08:21:00,
2013-02-10 00:31:00,39.0,38.0,30.22,North,0,0.0,0.0,98,30.40,,,-99.99,,2013-02-10 08:31:00,
2013-02-10 00:42:00,39.0,38.0,30.22,North,0,0.0,0.0,98,30.40,,,-99.99,,2013-02-10 08:42:00,
2013-02-10 00:52:00,39.0,38.0,30.23,North,0,0.0,0.0,98,30.40,,,-99.99,,2013-02-10 08:52:00,
2013-02-10 01:01:00,39.0,38.0,30.23,North,0,0.0,0.0,98,30.40,,,-99.99,,2013-02-10 09:01:00,
2013-02-10 01:11:00,39.0,38.0,30.23,North,0,0.0,0.0,98,30.40,,,-99.99,,2013-02-10 09:11:00,
2013-02-10 01:21:00,39.0,38.0,30.22,North,0,0.0,0.0,98,30.40,,,-99.99,,2013-02-10 09:21:00,
2013-02-10 01:32:00,39.0,38.0,30.22,North,0,0.0,0.0,98,30.40,,,-99.99,,2013-02-10 09:32:00,
2013-02-10 01:42:00,39.0,38.0,30.22,North,0,0.0,0.0,98,30.40,,,-99.99,,2013-02-10 09:42:00,
2013-02-10 01:52:00,39.0,38.0,30.22,North,0,0.0,0.0,98,30.40,,,-99.99,,2013-02-10 09:52:00,
2013-02-10 02:01:00,39.0,38.0,30.22,North,0,0.0,0.0,98,30.40,,,-99.99,,2013-02-10 10:01:00,
2013-02-10 02:11:00,39.0,38.0,30.22,North,0,0.0,0.0,98,30.40,,,-99.99,,2013-02-10 10:11:00,
2013-02-10 02:21:00,39.0,38.0,30.23,North,0,0.0,0.0,98,30.40,,,-99.99,,2013-02-10 10:21:00,
2013-02-10 02:52:00,39.0,38.0,30.23,North,0,0.0,0.0,98,30.40,,,-99.99,,2013-02-10 10:52:00,
2013-02-10 03:01:00,39.0,38.0,30.23,North,0,0.0,0.0,98,30.40,,,-99.99,,2013-02-10 11:01:00,
2013-02-10 03:11:00,39.0,38.0,30.23,North,0,0.0,0.0,98,30.40,,,-99.99,,2013-02-10 11:11:00,
2013-02-10 04:01:00,38.0,37.0,30.23,North,0,0.0,0.0,98,30.40,,,-99.99,,2013-02-10 12:01:00,
2013-02-10 04:12:00,38.0,37.0,30.23,North,0,0.0,0.0,98,30.40,,,-99.99,,2013-02-10 12:12:00,
2013-02-10 04:21:00,38.0,37.0,30.22,North,0,0.0,0.0,98,30.40,,,-99.99,,2013-02-10 12:21:00,
2013-02-10 04:32:00,38.0,37.0,30.22,North,0,0.0,0.0,98,30.40,,,-99.99,,2013-02-10 12:32:00,
2013-02-10 04:41:00,38.0,37.0,30.22,North,0,0.0,0.0,98,30.40,,,-99.99,,2013-02-10 12:41:00,
2013-02-10 04:52:00,38.0,37.0,30.22,North,0,0.0,0.0,98,30.40,,,-99.99,,2013-02-10 12:52:00,
2013-02-10 05:02:00,38.0,37.0,30.23,North,0,0.0,0.0,98,30.40,,,-99.99,,2013-02-10 13:02:00,
2013-02-10 05:31:00,38.0,37.0,30.23,North,0,0.0,0.0,98,30.40,,,-99.99,,2013-02-10 13:31:00,
2013-02-10 05:52:00,36.0,35.0,30.23,North,0,0.0,0.0,98,30.40,,,-99.99,,2013-02-10 13:52:00,
2013-02-10 06:02:00,36.0,35.0,30.23,North,0,0.0,0.0,98,30.40,,,-99.99,,2013-02-10 14:02:00,
2013-02-10 06:11:00,36.0,35.0,30.23,North,0,0.0,0.0,98,30.40,,,-99.99,,2013-02-10 14:11:00,
2013-02-10 06:21:00,36.0,35.0,30.23,North,0,0.0,0.0,98,30.40,,,-99.99,,2013-02-10 14:21:00,
2013-02-10 07:01:00,37.0,36.0,30.24,North,0,0.0,0.0,98,30.40,,,-99.99,,2013-02-10 15:01:00,
2013-02-10 07:11:00,37.0,36.0,30.24,North,0,0.0,0.0,98,30.40,,,-99.99,,2013-02-10 15:11:00,
2013-02-10 07:21:00,37.0,36.0,30.24,North,0,0.0,0.0,98,30.40,,,-99.99,,2013-02-10 15:21:00,
2013-02-10 07:31:00,37.0,36.0,30.24,North,0,0.0,0.0,98,30.40,,,-99.99,,2013-02-10 15:31:00,
2013-02-10 07:52:00,37.0,36.0,30.24,North,0,0.0,0.0,98,30.40,,,-99.99,,2013-02-10 15:52:00,
2013-02-10 08:01:00,36.0,35.0,30.24,North,0,0.0,0.0,98,30.40,,,-99.99,,2013-02-10 16:01:00,
2013-02-10 08:11:00,37.0,36.0,30.24,North,0,0.0,0.0,98,30.40,,,-99.99,,2013-02-10 16:11:00,
2013-02-10 08:21:00,37.0,36.0,30.24,North,0,0.0,0.0,98,30.40,,,-99.99,,2013-02-10 16:21:00,
2013-02-10 08:32:00,37.0,36.0,30.24,North,0,0.0,0.0,98,30.40,,,-99.99,,2013-02-10 16:32:00,
2013-02-10 09:01:00,38.0,38.0,30.24,North,0,0.0,0.0,99,30.40,,,-99.99,,2013-02-10 17:01:00,
2013-02-10 09:11:00,38.0,38.0,30.24,North,0,0.0,0.0,99,30.40,,,-99.99,,2013-02-10 17:11:00,
2013-02-10 09:21:00,38.0,38.0,30.24,North,0,0.0,0.0,99,30.40,,,-99.99,,2013-02-10 17:21:00,
2013-02-10 09:31:00,39.0,39.0,30.25,North,0,0.0,0.0,99,30.40,,,-99.99,,2013-02-10 17:31:00,
2013-02-10 09:42:00,39.0,39.0,30.25,North,0,0.0,0.0,99,30.40,,,-99.99,,2013-02-10 17:42:00,
2013-02-10 09:52:00,39.0,39.0,30.25,North,0,0.0,0.0,99,30.40,,,-99.99,,2013-02-10 17:52:00,
2013-02-10 10:01:00,39.0,39.0,30.25,North,0,0.0,0.0,99,30.40,,,-99.99,,2013-02-10 18:01:00,
2013-02-10 10:11:00,39.0,39.0,30.25,North,0,0.0,0.0,99,30.40,,,-99.99,,2013-02-10 18:11:00,
2013-02-10 12:22:00,47.0,39.0,30.22,SSW,212,1.0,5.0,74,30.40,,,-99.99,,2013-02-10 20:22:00,
2013-02-10 12:32:00,47.0,39.0,30.22,SSW,212,1.0,5.0,74,30.40,,,-99.99,,2013-02-10 20:32:00,
2013-02-10 12:42:00,49.0,40.0,30.21,South,179,1.0,5.0,70,30.40,,,-99.99,,2013-02-10 20:42:00,
2013-02-10 12:52:00,49.0,40.0,30.21,South,179,1.0,5.0,70,30.40,,,-99.99,,2013-02-10 20:52:00,
2013-02-10 13:01:00,49.0,40.0,30.21,WSW,246,2.0,6.0,70,30.40,,,-99.99,,2013-02-10 21:01:00,
2013-02-10 13:02:00,48.0,39.0,30.21,SSW,204,1.0,6.0,71,30.40,,,-99.99,,2013-02-10 21:02:00,
2013-02-10 13:11:00,48.0,39.0,30.21,SSW,204,1.0,6.0,71,30.40,,,-99.99,,2013-02-10 21:11:00,
2013-02-10 13:21:00,49.0,40.0,30.21,WSW,246,2.0,6.0,70,30.40,,,-99.99,,2013-02-10 21:21:00,
2013-02-10 13:31:00,49.0,40.0,30.21,WSW,246,2.0,6.0,70,30.40,,,-99.99,,2013-02-10 21:31:00,
2013-02-10 13:41:00,49.0,40.0,30.21,WSW,246,2.0,6.0,70,30.40,,,-99.99,,2013-02-10 21:41:00,
2013-02-10 13:52:00,49.0,40.0,30.21,WSW,246,2.0,6.0,70,30.40,,,-99.99,,2013-02-10 21:52:00,
2013-02-10 15:32:00,50.0,40.0,30.18,WSW,240,2.0,6.0,68,30.40,,,-99.99,,2013-02-10 23:32:00,
2013-02-10 15:42:00,50.0,40.0,30.18,WSW,240,2.0,6.0,68,30.40,,,-99.99,,2013-02-10 23:42:00,
2013-02-10 15:52:00,50.0,40.0,30.18,WSW,240,2.0,6.0,68,30.40,,,-99.99,,2013-02-10 23:52:00,
2013-02-10 16:01:00,50.0,40.0,30.18,WSW,240,2.0,6.0,68,30.40,,,-99.99,,2013-02-11 00:01:00,
2013-02-10 16:11:00,50.0,40.0,30.18,WSW,240,2.0,6.0,68,30.40,,,-99.99,,2013-02-11 00:11:00,
2013-02-10 16:42:00,49.0,41.0,30.19,South,187,0.0,2.0,73,30.40,,,-99.99,,2013-02-11 00:42:00,
2013-02-10 16:52:00,49.0,41.0,30.19,South,187,0.0,2.0,73,30.40,,,-99.99,,2013-02-11 00:52:00,
2013-02-10 17:01:00,49.0,41.0,30.19,South,187,0.0,2.0,73,30.40,,,-99.99,,2013-02-11 01:01:00,
2013-02-10 17:11:00,49.0,41.0,30.19,South,187,0.0,2.0,73,30.40,,,-99.99,,2013-02-11 01:11:00,
2013-02-10 17:21:00,49.0,41.0,30.19,South,187,0.0,2.0,73,30.40,,,-99.99,,2013-02-11 01:21:00,
2013-02-10 17:31:00,46.0,40.0,30.20,North,0,0.0,0.0,79,30.40,,,-99.99,,2013-02-11 01:31:00,
2013-02-10 17:42:00,46.0,40.0,30.20,North,0,0.0,0.0,79,30.40,,,-99.99,,2013-02-11 01:42:00,
2013-02-10 17:52:00,46.0,40.0,30.20,North,0,0.0,0.0,79,30.40,,,-99.99,,2013-02-11 01:52:00,
2013-02-10 18:01:00,46.0,40.0,30.20,North,0,0.0,0.0,79,30.40,,,-99.99,,2013-02-11 02:01:00,
2013-02-10 19:11:00,44.0,39.0,30.20,North,0,0.0,0.0,83,30.40,,,-99.99,,2013-02-11 03:11:00,
2013-02-10 19:21:00,44.0,39.0,30.20,North,0,0.0,0.0,83,30.40,,,-99.99,,2013-02-11 03:21:00,
2013-02-10 19:32:00,44.0,39.0,30.20,North,0,0.0,0.0,83,30.40,,,-99.99,,2013-02-11 03:32:00,
2013-02-10 19:42:00,44.0,39.0,30.20,North,0,0.0,0.0,83,30.40,,,-99.99,,2013-02-11 03:42:00,
2013-02-10 19:52:00,44.0,39.0,30.20,North,0,0.0,0.0,83,30.40,,,-99.99,,2013-02-11 03:52:00,
2013-02-10 20:01:00,44.0,39.0,30.21,North,0,0.0,0.0,84,30.40,,,-99.99,,2013-02-11 04:01:00,
2013-02-10 20:11:00,44.0,39.0,30.21,North,0,0.0,0.0,84,30.40,,,-99.99,,2013-02-11 04:11:00,
2013-02-10 20:21:00,43.0,39.0,30.21,North,0,0.0,0.0,85,30.40,,,-99.99,,2013-02-11 04:21:00,
2013-02-10 20:31:00,43.0,39.0,30.21,SSE,159,1.0,4.0,85,30.40,,,-99.99,,2013-02-11 04:31:00,
2013-02-10 20:41:00,43.0,39.0,30.21,SSE,159,1.0,4.0,85,30.40,,,-99.99,,2013-02-11 04:41:00,
2013-02-10 20:51:00,43.0,39.0,30.21,SSE,159,1.0,4.0,85,30.40,,,-99.99,,2013-02-11 04:51:00,
2013-02-10 21:01:00,43.0,39.0,30.21,SSE,159,1.0,4.0,85,30.40,,,-99.99,,2013-02-11 05:01:00,
2013-02-10 21:11:00,43.0,39.0,30.22,South,170,1.0,3.0,85,30.40,,,-99.99,,2013-02-11 05:11:00,
2013-02-10 21:22:00,43.0,39.0,30.22,South,170,1.0,3.0,85,30.40,,,-99.99,,2013-02-11 05:22:00,
2013-02-10 21:31:00,43.0,39.0,30.22,South,170,1.0,3.0,85,30.40,,,-99.99,,2013-02-11 05:31:00,
2013-02-10 21:41:00,42.0,38.0,30.22,SE,135,1.0,7.0,84,30.40,,,-99.99,,2013-02-11 05:41:00,
2013-02-10 21:52:00,42.0,38.0,30.22,SE,135,1.0,7.0,84,30.40,,,-99.99,,2013-02-11 05:52:00,
2013-02-10 22:01:00,42.0,38.0,30.22,North,0,0.0,0.0,84,30.40,,,-99.99,,2013-02-11 06:01:00,
2013-02-10 22:11:00,42.0,38.0,30.22,North,0,0.0,0.0,84,30.40,,,-99.99,,2013-02-11 06:11:00,
2013-02-10 22:21:00,42.0,38.0,30.22,North,0,0.0,0.0,84,30.40,,,-99.99,,2013-02-11 06:21:00,
2013-02-10 22:31:00,42.0,38.0,30.22,North,0,0.0,0.0,85,30.40,,,-99.99,,2013-02-11 06:31:00,
2013-02-10 22:41:00,42.0,38.0,30.22,North,0,0.0,0.0,85,30.40,,,-99.99,,2013-02-11 06:41:00,
2013-02-10 22:52:00,42.0,38.0,30.22,North,0,0.0,0.0,85,30.40,,,-99.99,,2013-02-11 06:52:00,
2013-02-10 23:01:00,42.0,38.0,30.22,North,0,0.0,0.0,85,30.40,,,-99.99,,2013-02-11 07:01:00,
2013-02-10 23:11:00,42.0,38.0,30.21,North,0,0.0,0.0,87,30.40,,,-99.99,,2013-02-11 07:11:00,
2013-02-10 23:21:00,42.0,38.0,30.21,North,0,0.0,0.0,87,30.40,,,-99.99,,2013-02-11 07:21:00,
2013-02-10 23:32:00,42.0,38.0,30.21,North,0,0.0,0.0,87,30.40,,,-99.99,,2013-02-11 07:32:00,
2013-02-10 23:41:00,41.0,37.0,30.21,North,0,0.0,0.0,87,30.40,,,-99.99,,2013-02-11 07:41:00,
2013-02-10 23:51:00,41.0,37.0,30.21,North,0,0.0,0.0,87,30.40,,,-99.99,,2013-02-11 07:51:00,